Location: Bethany Fellowship Church
(32.6216°N, 97.3708°W)
Time: 06:13:51
(UTC+00:00)

STARLINK-36053 - Pass Details

Date: 11 December 2025
Orbit: 482 x 484 km, 43.0° (Epoch: 20 January)

Event Time Altitude Azimuth Distance (km) Brightness Sun altitude
Exits shadow 12:21:40 13° 251° (WSW) 1,456 4.3 -12.4°
Maximum altitude 12:24:53 63° 331° (NNW) 540 2.3 -11.8°
Drops below altitude 10° 12:28:38 10° 54° (NE) 1,659 5.5 -11.0°
Sets 12:30:51 0° 57° (ENE) 2,542 6.6 -10.6°
